| time (UTC) | temp F | wind direction | speed MPH | gust MPH | rain 1hr in | rain 24hr in | rain mn in | humidity % | barometer mb |
| 20260905191550 | 100 | 355 | 4.0 | 8.0 | 0.00 | 0.00 | 0.00 | 42 | 1014.7 |
| 20260905191049 | 100 | 16 | 4.0 | 8.0 | 0.00 | 0.00 | 0.00 | 42 | 1014.7 |
| 20260905190648 | 100 | 348 | 3.0 | 8.0 | 0.00 | 0.00 | 0.00 | 42 | 1014.7 |
| 20260905190054 | 100 | 286 | 2.0 | 5.0 | 0.00 | 0.00 | 0.00 | 42 | 1014.8 |
| 20260905185552 | 99 | 209 | 3.0 | 5.0 | 0.00 | 0.00 | 0.00 | 41 | 1014.9 |
| 20260905185051 | 99 | 125 | 2.0 | 4.0 | 0.00 | 0.00 | 0.00 | 43 | 1015.0 |
| 20260905184600 | 96 | 12 | 1.0 | 5.0 | 0.00 | 0.00 | 0.00 | 50 | 1015.1 |
| 20260905184053 | 96 | 31 | 1.0 | 7.0 | 0.00 | 0.00 | 0.00 | 46 | 1015.2 |
| 20260905183551 | 98 | 355 | 4.0 | 7.0 | 0.00 | 0.00 | 0.00 | 44 | 1015.1 |
| 20260905183051 | 97 | 52 | 3.0 | 8.0 | 0.00 | 0.00 | 0.00 | 46 | 1015.3 |
| 20260905182550 | 98 | 343 | 4.0 | 8.0 | 0.00 | 0.00 | 0.00 | 45 | 1015.3 |
| 20260905182050 | 99 | 360 | 3.0 | 8.0 | 0.00 | 0.00 | 0.00 | 47 | 1015.2 |
| 20260905181550 | 99 | 28 | 3.0 | 8.0 | 0.00 | 0.00 | 0.00 | 44 | 1015.2 |
| 20260905181047 | 99 | 313 | 3.0 | 6.0 | 0.00 | 0.00 | 0.00 | 46 | 1015.3 |
| 20260905180647 | 98 | 321 | 2.0 | 6.0 | 0.00 | 0.00 | 0.00 | 45 | 1015.4 |
| 20260905180051 | 99 | 67 | 2.0 | 6.0 | 0.00 | 0.00 | 0.00 | 45 | 1015.4 |
| 20260905175552 | 98 | 25 | 1.0 | 3.0 | 0.00 | 0.00 | 0.00 | 45 | 1015.5 |
| 20260905175051 | 98 | 241 | 1.0 | 5.0 | 0.00 | 0.00 | 0.00 | 43 | 1015.6 |
| 20260905174550 | 98 | 346 | 2.0 | 8.0 | 0.00 | 0.00 | 0.00 | 44 | 1015.7 |
| 20260905174049 | 98 | 336 | 3.0 | 8.0 | 0.00 | 0.00 | 0.00 | 43 | 1015.8 |
| 20260905173548 | 98 | 283 | 2.0 | 5.0 | 0.00 | 0.00 | 0.00 | 46 | 1015.8 |
| 20260905173052 | 97 | 302 | 1.0 | 4.0 | 0.00 | 0.00 | 0.00 | 46 | 1016.0 |
| 20260905172547 | 97 | 186 | 1.0 | 4.0 | 0.00 | 0.00 | 0.00 | 45 | 1016.1 |
| 20260905172046 | 97 | 76 | 1.0 | 5.0 | 0.00 | 0.00 | 0.00 | 45 | 1016.1 |
| 20260905171545 | 97 | 92 | 1.0 | 8.0 | 0.00 | 0.00 | 0.00 | 48 | 1016.2 |
| 20260905171043 | 97 | 49 | 3.0 | 8.0 | 0.00 | 0.00 | 0.00 | 48 | 1016.3 |
| 20260905170509 | 97 | 53 | 2.0 | 7.0 | 0.00 | 0.00 | 0.00 | 48 | 1016.4 |
| 20260905170007 | 97 | 112 | 2.0 | 7.0 | 0.00 | 0.00 | 0.00 | 53 | 1016.4 |
| 20260905165506 | 97 | 315 | 2.0 | 8.0 | 0.00 | 0.00 | 0.00 | 46 | 1016.5 |
| 20260905165008 | 96 | 355 | 3.0 | 8.0 | 0.00 | 0.00 | 0.00 | 47 | 1016.5 |
| 20260905164505 | 97 | 5 | 2.0 | 6.0 | 0.00 | 0.00 | 0.00 | 48 | 1016.6 |
| 20260905164004 | 96 | 306 | 2.0 | 4.0 | 0.00 | 0.00 | 0.00 | 48 | 1016.5 |
| 20260905163505 | 96 | 10 | 1.0 | 5.0 | 0.00 | 0.00 | 0.00 | 49 | 1016.5 |
| 20260905163002 | 95 | 324 | 3.0 | 5.0 | 0.00 | 0.00 | 0.00 | 49 | 1016.6 |
| 20260905162502 | 94 | 11 | 2.0 | 5.0 | 0.00 | 0.00 | 0.00 | 56 | 1016.5 |
| 20260905162100 | 93 | 9 | 0.0 | 3.0 | 0.00 | 0.00 | 0.00 | 60 | 1016.5 |
| 20260905161600 | 93 | 14 | 1.0 | 5.0 | 0.00 | 0.00 | 0.00 | 58 | 1016.6 |
| 20260905161100 | 94 | 34 | 2.0 | 5.0 | 0.00 | 0.00 | 0.00 | 58 | 1016.6 |
| 20260905160505 | 93 | 281 | 1.0 | 4.0 | 0.00 | 0.00 | 0.00 | 55 | 1016.6 |
| 20260905160005 | 92 | 323 | 1.0 | 5.0 | 0.00 | 0.00 | 0.00 | 60 | 1016.5 |
| 20260905155507 | 94 | 292 | 1.0 | 5.0 | 0.00 | 0.00 | 0.00 | 52 | 1016.7 |
| 20260905155003 | 93 | 261 | 2.0 | 6.0 | 0.00 | 0.00 | 0.00 | 53 | 1016.7 |
| 20260905154504 | 94 | 315 | 2.0 | 8.0 | 0.00 | 0.00 | 0.00 | 56 | 1016.7 |
| 20260905154005 | 94 | 312 | 2.0 | 8.0 | 0.00 | 0.00 | 0.00 | 51 | 1016.7 |
| 20260905153503 | 94 | 302 | 1.0 | 6.0 | 0.00 | 0.00 | 0.00 | 54 | 1016.5 |
| 20260905153001 | 93 | 316 | 2.0 | 6.0 | 0.00 | 0.00 | 0.00 | 53 | 1016.5 |
| 20260905152603 | 93 | 5 | 1.0 | 4.0 | 0.00 | 0.00 | 0.00 | 59 | 1016.5 |
| 20260905152058 | 92 | 348 | 2.0 | 5.0 | 0.00 | 0.00 | 0.00 | 60 | 1016.6 |
| 20260905151613 | 92 | 20 | 2.0 | 5.0 | 0.00 | 0.00 | 0.00 | 60 | 1016.5 |
| 20260905151054 | 91 | 340 | 2.0 | 5.0 | 0.00 | 0.00 | 0.00 | 61 | 1016.6 |
| 20260905150511 | 92 | 5 | 1.0 | 4.0 | 0.00 | 0.00 | 0.00 | 59 | 1016.4 |
| 20260905150006 | 91 | 269 | 1.0 | 6.0 | 0.00 | 0.00 | 0.00 | 59 | 1016.4 |
| 20260905145503 | 91 | 323 | 3.0 | 8.0 | 0.00 | 0.00 | 0.00 | 61 | 1016.5 |
| 20260905145003 | 91 | 328 | 3.0 | 8.0 | 0.00 | 0.00 | 0.00 | 62 | 1016.5 |
| 20260905144502 | 91 | 294 | 1.0 | 8.0 | 0.00 | 0.00 | 0.00 | 62 | 1016.5 |
| 20260905144103 | 91 | 287 | 5.0 | 8.0 | 0.00 | 0.00 | 0.00 | 60 | 1016.5 |
| 20260905143559 | 90 | 320 | 2.0 | 8.0 | 0.00 | 0.00 | 0.00 | 63 | 1016.5 |
| 20260905143058 | 89 | 343 | 2.0 | 8.0 | 0.00 | 0.00 | 0.00 | 64 | 1016.5 |
| 20260905142558 | 87 | 299 | 3.0 | 5.0 | 0.00 | 0.00 | 0.00 | 69 | 1016.5 |
| 20260905142054 | 86 | 340 | 1.0 | 6.0 | 0.00 | 0.00 | 0.00 | 73 | 1016.6 |
| 20260905141553 | 85 | 297 | 1.0 | 6.0 | 0.00 | 0.00 | 0.00 | 73 | 1016.6 |
| 20260905141051 | 84 | 298 | 2.0 | 5.0 | 0.00 | 0.00 | 0.00 | 78 | 1016.6 |
| 20260905140650 | 82 | 317 | 0.0 | 3.0 | 0.00 | 0.00 | 0.00 | 80 | 1016.6 |
| 20260905140058 | 81 | 321 | 0.0 | 2.0 | 0.00 | 0.00 | 0.00 | 84 | 1016.7 |
| 20260905135557 | 80 | 146 | 0.0 | 1.0 | 0.00 | 0.00 | 0.00 | 84 | 1016.8 |
| 20260905135057 | 79 | 146 | 0.0 | 1.0 | 0.00 | 0.00 | 0.00 | 85 | 1016.9 |
| 20260905134554 | 78 | 146 | 0.0 | 0.0 | 0.00 | 0.00 | 0.00 | 88 | 1016.8 |
| 20260905134057 | 76 | 146 | 0.0 | 0.0 | 0.00 | 0.00 | 0.00 | 90 | 1016.9 |
| 20260905133552 | 76 | 146 | 0.0 | 0.0 | 0.00 | 0.00 | 0.00 | 92 | 1016.8 |
| 20260905133049 | 75 | 146 | 0.0 | 0.0 | 0.00 | 0.00 | 0.00 | 93 | 1016.8 |
| 20260905132548 | 74 | 146 | 0.0 | 0.0 | 0.00 | 0.00 | 0.00 | 94 | 1016.7 |
| 20260905132048 | 74 | 146 | 0.0 | 0.0 | 0.00 | 0.00 | 0.00 | 94 | 1016.6 |
| 20260905131556 | 73 | 146 | 0.0 | 0.0 | 0.00 | 0.00 | 0.00 | 95 | 1016.6 |
| 20260905131046 | 72 | 146 | 0.0 | 0.0 | 0.00 | 0.00 | 0.00 | 95 | 1016.6 |
| 20260905130647 | 72 | 146 | 0.0 | 0.0 | 0.00 | 0.00 | 0.00 | 96 | 1016.5 |
| 20260905130050 | 72 | 146 | 0.0 | 0.0 | 0.00 | 0.00 | 0.00 | 96 | 1016.6 |
| 20260905125549 | 71 | 146 | 0.0 | 0.0 | 0.00 | 0.00 | 0.00 | 96 | 1016.5 |
| 20260905125049 | 71 | 146 | 0.0 | 0.0 | 0.00 | 0.00 | 0.00 | 97 | 1016.5 |
| 20260905124548 | 70 | 146 | 0.0 | 0.0 | 0.00 | 0.00 | 0.00 | 96 | 1016.5 |
| 20260905124047 | 70 | 146 | 0.0 | 0.0 | 0.00 | 0.00 | 0.00 | 97 | 1016.4 |
| 20260905123546 | 70 | 146 | 0.0 | 0.0 | 0.00 | 0.00 | 0.00 | 97 | 1016.4 |
| 20260905123104 | 70 | 146 | 0.0 | 0.0 | 0.00 | 0.00 | 0.00 | 97 | 1016.3 |
| 20260905122548 | 70 | 146 | 0.0 | 0.0 | 0.00 | 0.00 | 0.00 | 97 | 1016.3 |
| 20260905122045 | 69 | 146 | 0.0 | 0.0 | 0.00 | 0.00 | 0.00 | 97 | 1016.3 |
| 20260905121544 | 69 | 146 | 0.0 | 0.0 | 0.00 | 0.00 | 0.00 | 97 | 1016.2 |
| 20260905121044 | 69 | 146 | 0.0 | 0.0 | 0.00 | 0.00 | 0.00 | 96 | 1016.3 |
| 20260905120644 | 69 | 146 | 0.0 | 0.0 | 0.00 | 0.00 | 0.00 | 96 | 1016.2 |
| 20260905120042 | 69 | 157 | 0.0 | 0.0 | 0.00 | 0.00 | 0.00 | 96 | 1016.1 |
| 20260905115545 | 69 | 157 | 0.0 | 0.0 | 0.00 | 0.00 | 0.00 | 96 | 1016.0 |
| 20260905115046 | 69 | 157 | 0.0 | 0.0 | 0.00 | 0.00 | 0.00 | 96 | 1015.8 |
| 20260905114544 | 69 | 157 | 0.0 | 0.0 | 0.00 | 0.00 | 0.00 | 96 | 1015.8 |
| 20260905114041 | 69 | 157 | 0.0 | 0.0 | 0.00 | 0.00 | 0.00 | 96 | 1015.8 |
| 20260905113542 | 69 | 159 | 0.0 | 0.0 | 0.00 | 0.00 | 0.00 | 96 | 1015.8 |
| 20260905113040 | 69 | 159 | 0.0 | 0.0 | 0.00 | 0.00 | 0.00 | 96 | 1015.8 |
| 20260905112540 | 69 | 159 | 0.0 | 0.0 | 0.00 | 0.00 | 0.00 | 96 | 1015.7 |
| 20260905112039 | 69 | 159 | 0.0 | 1.0 | 0.00 | 0.00 | 0.00 | 96 | 1015.6 |
| 20260905111539 | 69 | 159 | 0.0 | 1.0 | 0.00 | 0.00 | 0.00 | 96 | 1015.7 |
| 20260905111040 | 69 | 159 | 0.0 | 1.0 | 0.00 | 0.00 | 0.00 | 96 | 1015.6 |
| 20260905110638 | 69 | 159 | 0.0 | 1.0 | 0.00 | 0.00 | 0.00 | 96 | 1015.7 |
| 20260905110053 | 69 | 159 | 0.0 | 1.0 | 0.00 | 0.00 | 0.00 | 96 | 1015.7 |
| 20260905105553 | 70 | 159 | 0.0 | 1.0 | 0.00 | 0.00 | 0.00 | 96 | 1015.6 |
| 20260905105053 | 70 | 159 | 0.0 | 0.0 | 0.00 | 0.00 | 0.00 | 96 | 1015.7 |
| 20260905104553 | 70 | 159 | 0.0 | 0.0 | 0.00 | 0.00 | 0.00 | 96 | 1015.8 |
| 20260905104052 | 70 | 159 | 0.0 | 0.0 | 0.00 | 0.00 | 0.00 | 96 | 1015.9 |
| 20260905103552 | 70 | 159 | 0.0 | 0.0 | 0.00 | 0.00 | 0.00 | 96 | 1015.8 |
| 20260905103058 | 70 | 159 | 0.0 | 0.0 | 0.00 | 0.00 | 0.00 | 96 | 1015.8 |
| 20260905102554 | 70 | 159 | 0.0 | 0.0 | 0.00 | 0.00 | 0.00 | 96 | 1015.8 |
| 20260905102051 | 70 | 159 | 0.0 | 0.0 | 0.00 | 0.00 | 0.00 | 96 | 1015.9 |
| 20260905101550 | 70 | 159 | 0.0 | 0.0 | 0.00 | 0.00 | 0.00 | 95 | 1016.0 |
| 20260905101051 | 70 | 159 | 0.0 | 0.0 | 0.00 | 0.00 | 0.00 | 95 | 1015.9 |
| 20260905100652 | 70 | 159 | 0.0 | 0.0 | 0.00 | 0.00 | 0.00 | 95 | 1015.9 |
| 20260905100056 | 70 | 159 | 0.0 | 0.0 | 0.00 | 0.00 | 0.00 | 95 | 1015.8 |
| 20260905095548 | 70 | 159 | 0.0 | 0.0 | 0.00 | 0.00 | 0.00 | 95 | 1015.9 |
| 20260905095050 | 70 | 159 | 0.0 | 0.0 | 0.00 | 0.00 | 0.00 | 95 | 1015.9 |
| 20260905094548 | 71 | 159 | 0.0 | 0.0 | 0.00 | 0.00 | 0.00 | 95 | 1016.0 |
| 20260905094047 | 71 | 159 | 0.0 | 0.0 | 0.00 | 0.00 | 0.00 | 95 | 1015.8 |
| 20260905093547 | 71 | 159 | 0.0 | 0.0 | 0.00 | 0.00 | 0.00 | 95 | 1015.8 |
| 20260905093047 | 71 | 159 | 0.0 | 0.0 | 0.00 | 0.00 | 0.00 | 94 | 1015.9 |
| 20260905092546 | 71 | 159 | 0.0 | 0.0 | 0.00 | 0.00 | 0.00 | 94 | 1015.8 |
| 20260905092046 | 71 | 159 | 0.0 | 0.0 | 0.00 | 0.00 | 0.00 | 94 | 1015.8 |
| 20260905091552 | 71 | 159 | 0.0 | 0.0 | 0.00 | 0.00 | 0.00 | 94 | 1015.8 |
| 20260905091046 | 71 | 159 | 0.0 | 0.0 | 0.00 | 0.00 | 0.00 | 94 | 1015.8 |
| 20260905090646 | 71 | 159 | 0.0 | 0.0 | 0.00 | 0.00 | 0.00 | 93 | 1015.8 |
| 20260905090043 | 72 | 159 | 0.0 | 0.0 | 0.00 | 0.00 | 0.00 | 93 | 1015.7 |
| 20260905085543 | 72 | 159 | 0.0 | 0.0 | 0.00 | 0.00 | 0.00 | 93 | 1015.6 |
| 20260905085042 | 72 | 159 | 0.0 | 0.0 | 0.00 | 0.00 | 0.00 | 93 | 1015.5 |
| 20260905084548 | 72 | 159 | 0.0 | 0.0 | 0.00 | 0.00 | 0.00 | 93 | 1015.5 |
| 20260905084043 | 72 | 159 | 0.0 | 1.0 | 0.00 | 0.00 | 0.00 | 93 | 1015.6 |
| 20260905083544 | 72 | 159 | 0.0 | 1.0 | 0.00 | 0.00 | 0.00 | 93 | 1015.5 |
| 20260905083041 | 72 | 159 | 0.0 | 0.0 | 0.00 | 0.00 | 0.00 | 93 | 1015.5 |
| 20260905082541 | 72 | 159 | 0.0 | 0.0 | 0.00 | 0.00 | 0.00 | 92 | 1015.5 |
| 20260905082041 | 72 | 159 | 0.0 | 1.0 | 0.00 | 0.00 | 0.00 | 92 | 1015.5 |
| 20260905081541 | 72 | 159 | 0.0 | 1.0 | 0.00 | 0.00 | 0.00 | 92 | 1015.6 |
| 20260905081039 | 73 | 159 | 0.0 | 1.0 | 0.00 | 0.00 | 0.00 | 92 | 1015.6 |
| 20260905080502 | 73 | 159 | 0.0 | 1.0 | 0.00 | 0.00 | 0.00 | 92 | 1015.6 |
| 20260905080139 | 73 | 159 | 0.0 | 0.0 | 0.00 | 0.00 | 0.00 | 92 | 1015.7 |
| 20260905075600 | 73 | 159 | 0.0 | 1.0 | 0.00 | 0.00 | 0.00 | 92 | 1015.6 |
| 20260905075059 | 73 | 159 | 0.0 | 1.0 | 0.00 | 0.00 | 0.00 | 92 | 1015.5 |
| 20260905074603 | 73 | 159 | 0.0 | 1.0 | 0.00 | 0.00 | 0.00 | 92 | 1015.5 |
| 20260905074057 | 73 | 159 | 0.0 | 1.0 | 0.00 | 0.00 | 0.00 | 92 | 1015.7 |
| 20260905073557 | 73 | 159 | 0.0 | 1.0 | 0.00 | 0.00 | 0.00 | 91 | 1015.5 |
| 20260905073057 | 73 | 159 | 0.0 | 1.0 | 0.00 | 0.00 | 0.00 | 91 | 1015.6 |
| 20260905072559 | 73 | 159 | 0.0 | 1.0 | 0.00 | 0.00 | 0.00 | 91 | 1015.6 |
| 20260905072056 | 74 | 159 | 0.0 | 1.0 | 0.00 | 0.00 | 0.00 | 91 | 1015.7 |
| 20260905071602 | 74 | 159 | 0.0 | 1.0 | 0.00 | 0.00 | 0.00 | 90 | 1015.8 |
| 20260905071059 | 74 | 159 | 0.0 | 2.0 | 0.00 | 0.00 | 0.00 | 90 | 1015.6 |
| 20260905070656 | 74 | 156 | 0.0 | 2.0 | 0.00 | 0.00 | 0.00 | 90 | 1015.7 |
| 20260905070057 | 74 | 130 | 0.0 | 2.0 | 0.00 | 0.00 | 0.00 | 90 | 1015.7 |
| 20260905065556 | 74 | 158 | 0.0 | 2.0 | 0.00 | 0.00 | 0.00 | 90 | 1015.7 |
| 20260905065055 | 74 | 190 | 0.0 | 2.0 | 0.00 | 0.00 | 0.00 | 90 | 1015.9 |
| 20260905064600 | 74 | 131 | 0.0 | 1.0 | 0.00 | 0.00 | 0.00 | 90 | 1015.7 |
| 20260905064055 | 74 | 161 | 0.0 | 0.0 | 0.00 | 0.00 | 0.00 | 91 | 1015.8 |
| 20260905063555 | 75 | 161 | 0.0 | 0.0 | 0.00 | 0.00 | 0.00 | 90 | 1015.8 |
| 20260905063054 | 75 | 161 | 0.0 | 1.0 | 0.00 | 0.00 | 0.00 | 90 | 1015.9 |
| 20260905062554 | 75 | 161 | 0.0 | 1.0 | 0.00 | 0.00 | 0.00 | 90 | 1015.9 |
| 20260905062054 | 75 | 163 | 0.0 | 2.0 | 0.00 | 0.00 | 0.00 | 89 | 1015.9 |
| 20260905061558 | 75 | 134 | 0.0 | 2.0 | 0.00 | 0.00 | 0.00 | 90 | 1016.0 |
| 20260905061055 | 75 | 145 | 0.0 | 3.0 | 0.00 | 0.00 | 0.00 | 90 | 1016.0 |
| 20260905060655 | 75 | 128 | 1.0 | 3.0 | 0.00 | 0.00 | 0.00 | 90 | 1015.9 |
| 20260905060100 | 75 | 114 | 0.0 | 5.0 | 0.00 | 0.00 | 0.00 | 89 | 1015.8 |
| 20260905055558 | 75 | 191 | 0.0 | 4.0 | 0.00 | 0.00 | 0.00 | 89 | 1015.9 |
| 20260905055055 | 75 | 138 | 1.0 | 5.0 | 0.00 | 0.00 | 0.00 | 89 | 1015.9 |
| 20260905054557 | 75 | 165 | 1.0 | 7.0 | 0.00 | 0.00 | 0.00 | 90 | 1015.8 |
| 20260905054053 | 75 | 169 | 2.0 | 7.0 | 0.00 | 0.00 | 0.00 | 90 | 1015.8 |
| 20260905053555 | 75 | 148 | 1.0 | 5.0 | 0.00 | 0.00 | 0.00 | 90 | 1015.9 |
| 20260905053107 | 75 | 194 | 1.0 | 3.0 | 0.00 | 0.00 | 0.00 | 90 | 1015.8 |
| 20260905052552 | 75 | 161 | 0.0 | 3.0 | 0.00 | 0.00 | 0.00 | 90 | 1015.8 |
| 20260905052050 | 74 | 182 | 0.0 | 3.0 | 0.00 | 0.00 | 0.00 | 91 | 1015.9 |
| 20260905051555 | 74 | 131 | 0.0 | 3.0 | 0.00 | 0.00 | 0.00 | 91 | 1015.9 |
| 20260905051049 | 74 | 151 | 0.0 | 3.0 | 0.00 | 0.00 | 0.00 | 91 | 1015.7 |
| 20260905050650 | 74 | 138 | 0.0 | 4.0 | 0.00 | 0.00 | 0.00 | 91 | 1015.8 |
| 20260905050046 | 74 | 186 | 0.0 | 5.0 | 0.00 | 0.00 | 0.00 | 91 | 1015.8 |
| 20260905045546 | 74 | 148 | 0.0 | 4.0 | 0.00 | 0.00 | 0.00 | 91 | 1015.7 |
| 20260905045047 | 75 | 206 | 0.0 | 2.0 | 0.00 | 0.00 | 0.00 | 91 | 1015.7 |
| 20260905044548 | 75 | 154 | 0.0 | 1.0 | 0.00 | 0.00 | 0.00 | 91 | 1015.7 |
| 20260905044046 | 75 | 155 | 0.0 | 3.0 | 0.00 | 0.00 | 0.00 | 92 | 1015.8 |
| 20260905043547 | 75 | 175 | 0.0 | 3.0 | 0.00 | 0.00 | 0.00 | 92 | 1015.7 |
| 20260905043104 | 75 | 138 | 0.0 | 2.0 | 0.00 | 0.00 | 0.00 | 92 | 1015.9 |
| 20260905042546 | 75 | 157 | 0.0 | 1.0 | 0.00 | 0.00 | 0.00 | 92 | 1015.7 |
| 20260905042046 | 75 | 143 | 0.0 | 1.0 | 0.00 | 0.00 | 0.00 | 92 | 1015.7 |
| 20260905041546 | 75 | 140 | 0.0 | 1.0 | 0.00 | 0.00 | 0.00 | 92 | 1015.8 |
| 20260905041050 | 75 | 148 | 0.0 | 1.0 | 0.00 | 0.00 | 0.00 | 92 | 1015.8 |
| 20260905040646 | 75 | 135 | 0.0 | 3.0 | 0.00 | 0.00 | 0.00 | 92 | 1015.8 |
| 20260905040048 | 75 | 156 | 1.0 | 3.0 | 0.00 | 0.00 | 0.00 | 92 | 1015.8 |
| 20260905035540 | 75 | 175 | 0.0 | 3.0 | 0.00 | 0.00 | 0.00 | 92 | 1015.8 |
| 20260905035040 | 75 | 176 | 0.0 | 2.0 | 0.00 | 0.00 | 0.00 | 91 | 1016.1 |
| 20260905034542 | 75 | 149 | 0.0 | 2.0 | 0.00 | 0.00 | 0.00 | 91 | 1016.1 |
| 20260905034039 | 75 | 139 | 0.0 | 2.0 | 0.00 | 0.00 | 0.00 | 91 | 1015.9 |
| 20260905033539 | 75 | 198 | 0.0 | 2.0 | 0.00 | 0.00 | 0.00 | 91 | 1016.0 |
| 20260905033039 | 76 | 178 | 0.0 | 2.0 | 0.00 | 0.00 | 0.00 | 90 | 1016.0 |
| 20260905032543 | 76 | 182 | 0.0 | 1.0 | 0.00 | 0.00 | 0.00 | 90 | 1016.0 |
| 20260905032039 | 76 | 182 | 0.0 | 1.0 | 0.00 | 0.00 | 0.00 | 90 | 1016.0 |
| 20260905031542 | 76 | 182 | 0.0 | 0.0 | 0.00 | 0.00 | 0.00 | 90 | 1015.9 |
| 20260905031043 | 76 | 182 | 0.0 | 0.0 | 0.00 | 0.00 | 0.00 | 90 | 1016.1 |
| 20260905030640 | 76 | 182 | 0.0 | 1.0 | 0.00 | 0.00 | 0.00 | 90 | 1016.0 |
| 20260905030100 | 76 | 182 | 0.0 | 1.0 | 0.00 | 0.00 | 0.00 | 90 | 1016.1 |
| 20260905025557 | 76 | 182 | 0.0 | 1.0 | 0.00 | 0.00 | 0.00 | 90 | 1016.1 |
| 20260905025056 | 77 | 166 | 0.0 | 1.0 | 0.00 | 0.00 | 0.00 | 90 | 1016.0 |
| 20260905024556 | 77 | 166 | 0.0 | 1.0 | 0.00 | 0.00 | 0.00 | 89 | 1016.1 |
| 20260905024056 | 77 | 164 | 0.0 | 1.0 | 0.00 | 0.00 | 0.00 | 89 | 1016.0 |
| 20260905023556 | 77 | 164 | 0.0 | 1.0 | 0.00 | 0.00 | 0.00 | 90 | 1015.9 |
| 20260905023056 | 77 | 164 | 0.0 | 2.0 | 0.00 | 0.00 | 0.00 | 90 | 1016.0 |
| 20260905022555 | 77 | 164 | 0.0 | 3.0 | 0.00 | 0.00 | 0.00 | 89 | 1015.9 |
| 20260905022057 | 78 | 194 | 0.0 | 3.0 | 0.00 | 0.00 | 0.00 | 89 | 1015.8 |
| 20260905021555 | 78 | 155 | 0.0 | 1.0 | 0.00 | 0.00 | 0.00 | 88 | 1015.6 |
| 20260905021058 | 78 | 139 | 0.0 | 0.0 | 0.00 | 0.00 | 0.00 | 88 | 1015.7 |
| 20260905020656 | 78 | 139 | 0.0 | 0.0 | 0.00 | 0.00 | 0.00 | 88 | 1015.6 |
| 20260905020054 | 78 | 139 | 0.0 | 0.0 | 0.00 | 0.00 | 0.00 | 88 | 1015.6 |
| 20260905015552 | 78 | 139 | 0.0 | 1.0 | 0.00 | 0.00 | 0.00 | 87 | 1015.4 |
| 20260905015051 | 79 | 140 | 0.0 | 1.0 | 0.00 | 0.00 | 0.00 | 87 | 1015.4 |
| 20260905014550 | 79 | 140 | 0.0 | 3.0 | 0.00 | 0.00 | 0.00 | 87 | 1015.3 |
| 20260905014050 | 79 | 139 | 0.0 | 3.0 | 0.00 | 0.00 | 0.00 | 86 | 1015.1 |
| 20260905013550 | 79 | 137 | 0.0 | 0.0 | 0.00 | 0.00 | 0.00 | 86 | 1015.0 |
| 20260905013050 | 80 | 135 | 0.0 | 0.0 | 0.00 | 0.00 | 0.00 | 85 | 1014.9 |
| 20260905012550 | 80 | 135 | 0.0 | 1.0 | 0.00 | 0.00 | 0.00 | 84 | 1014.7 |
| 20260905012049 | 80 | 135 | 0.0 | 1.0 | 0.00 | 0.00 | 0.00 | 84 | 1014.7 |
| 20260905011611 | 81 | 151 | 0.0 | 1.0 | 0.00 | 0.00 | 0.00 | 83 | 1014.7 |
| 20260905011050 | 81 | 152 | 0.0 | 1.0 | 0.00 | 0.00 | 0.00 | 82 | 1014.6 |
| 20260905010650 | 81 | 142 | 0.0 | 2.0 | 0.00 | 0.00 | 0.00 | 82 | 1014.5 |
| 20260905010047 | 81 | 144 | 0.0 | 2.0 | 0.00 | 0.00 | 0.00 | 82 | 1014.4 |
| 20260905005546 | 81 | 134 | 0.0 | 1.0 | 0.00 | 0.00 | 0.00 | 82 | 1014.5 |
| 20260905005047 | 81 | 124 | 0.0 | 3.0 | 0.00 | 0.00 | 0.00 | 83 | 1014.4 |
| 20260905004547 | 82 | 130 | 1.0 | 3.0 | 0.00 | 0.00 | 0.00 | 82 | 1014.3 |
| 20260905004046 | 82 | 113 | 0.0 | 2.0 | 0.00 | 0.00 | 0.00 | 81 | 1014.3 |
| 20260905003547 | 83 | 148 | 0.0 | 2.0 | 0.00 | 0.00 | 0.00 | 81 | 1014.3 |
| 20260905003053 | 83 | 169 | 0.0 | 3.0 | 0.00 | 0.00 | 0.00 | 80 | 1014.2 |
| 20260905002545 | 83 | 148 | 0.0 | 3.0 | 0.00 | 0.00 | 0.00 | 81 | 1014.1 |
| 20260905002047 | 83 | 136 | 1.0 | 3.0 | 0.00 | 0.00 | 0.00 | 80 | 1014.1 |
| 20260905001555 | 84 | 124 | 1.0 | 3.0 | 0.00 | 0.00 | 0.00 | 79 | 1014.1 |
| 20260905001047 | 84 | 118 | 1.0 | 3.0 | 0.00 | 0.00 | 0.00 | 78 | 1014.2 |
| 20260905000646 | 85 | 117 | 1.0 | 3.0 | 0.00 | 0.00 | 0.00 | 77 | 1014.1 |
| 20260905000104 | 85 | 169 | 0.0 | 6.0 | 0.00 | 0.00 | 0.00 | 77 | 1014.2 |
| 20260904235558 | 85 | 109 | 1.0 | 4.0 | 0.00 | 0.00 | 0.00 | 76 | 1014.3 |
| 20260904235059 | 86 | 144 | 1.0 | 6.0 | 0.00 | 0.00 | 0.00 | 75 | 1014.1 |
| 20260904234559 | 86 | 162 | 1.0 | 6.0 | 0.00 | 0.00 | 0.00 | 74 | 1014.3 |
| 20260904234100 | 87 | 121 | 1.0 | 6.0 | 0.00 | 0.00 | 0.00 | 73 | 1014.2 |
| 20260904233603 | 87 | 151 | 2.0 | 8.0 | 0.00 | 0.00 | 0.00 | 73 | 1014.3 |
| 20260904233107 | 87 | 134 | 1.0 | 8.0 | 0.00 | 0.00 | 0.00 | 72 | 1014.3 |
| 20260904232559 | 88 | 156 | 2.0 | 7.0 | 0.00 | 0.00 | 0.00 | 69 | 1014.3 |
| 20260904232101 | 89 | 103 | 1.0 | 8.0 | 0.00 | 0.00 | 0.00 | 68 | 1014.3 |
| 20260904231559 | 90 | 146 | 2.0 | 8.0 | 0.00 | 0.00 | 0.00 | 65 | 1014.3 |
| 20260904231058 | 90 | 128 | 1.0 | 7.0 | 0.00 | 0.00 | 0.00 | 65 | 1014.4 |
| 20260904230658 | 91 | 76 | 2.0 | 8.0 | 0.00 | 0.00 | 0.00 | 64 | 1014.2 |
| 20260904230056 | 91 | 338 | 2.0 | 8.0 | 0.00 | 0.00 | 0.00 | 64 | 1014.2 |
| 20260904225556 | 92 | 36 | 1.0 | 9.0 | 0.00 | 0.00 | 0.00 | 63 | 1014.1 |
| 20260904225056 | 91 | 100 | 3.0 | 9.0 | 0.00 | 0.00 | 0.00 | 63 | 1014.2 |
| 20260904224555 | 91 | 101 | 3.0 | 7.0 | 0.00 | 0.00 | 0.00 | 63 | 1014.2 |
| 20260904224055 | 91 | 92 | 2.0 | 10.0 | 0.00 | 0.00 | 0.00 | 64 | 1014.2 |
| 20260904223555 | 91 | 121 | 3.0 | 10.0 | 0.00 | 0.00 | 0.00 | 64 | 1014.2 |
| 20260904223057 | 91 | 355 | 2.0 | 9.0 | 0.00 | 0.00 | 0.00 | 64 | 1014.4 |
| 20260904222554 | 90 | 74 | 3.0 | 9.0 | 0.00 | 0.00 | 0.00 | 62 | 1014.2 |
| 20260904222055 | 89 | 112 | 2.0 | 7.0 | 0.00 | 0.00 | 0.00 | 67 | 1014.4 |
| 20260904221555 | 88 | 96 | 2.0 | 7.0 | 0.00 | 0.00 | 0.00 | 68 | 1014.4 |
| 20260904221054 | 89 | 105 | 1.0 | 6.0 | 0.00 | 0.00 | 0.00 | 67 | 1014.3 |
| 20260904220654 | 89 | 145 | 1.0 | 4.0 | 0.00 | 0.00 | 0.00 | 65 | 1014.4 |
| 20260904220105 | 90 | 121 | 1.0 | 6.0 | 0.00 | 0.00 | 0.00 | 65 | 1014.4 |
| 20260904215551 | 91 | 136 | 1.0 | 5.0 | 0.00 | 0.00 | 0.00 | 63 | 1014.5 |
| 20260904215051 | 93 | 136 | 2.0 | 7.0 | 0.00 | 0.00 | 0.00 | 55 | 1014.6 |
| 20260904214551 | 93 | 61 | 2.0 | 7.0 | 0.00 | 0.00 | 0.00 | 55 | 1014.5 |
| 20260904214054 | 93 | 116 | 2.0 | 7.0 | 0.00 | 0.00 | 0.00 | 54 | 1014.6 |
| 20260904213551 | 94 | 118 | 2.0 | 9.0 | 0.00 | 0.00 | 0.00 | 58 | 1014.6 |
| 20260904213052 | 94 | 119 | 2.0 | 9.0 | 0.00 | 0.00 | 0.00 | 55 | 1014.5 |
| 20260904212553 | 93 | 90 | 2.0 | 9.0 | 0.00 | 0.00 | 0.00 | 58 | 1014.7 |
| 20260904212049 | 94 | 142 | 3.0 | 8.0 | 0.00 | 0.00 | 0.00 | 55 | 1014.8 |
| 20260904211549 | 94 | 117 | 2.0 | 8.0 | 0.00 | 0.00 | 0.00 | 55 | 1014.7 |
| 20260904211049 | 94 | 343 | 2.0 | 8.0 | 0.00 | 0.00 | 0.00 | 54 | 1014.8 |
| 20260904210651 | 95 | 66 | 2.0 | 7.0 | 0.00 | 0.00 | 0.00 | 52 | 1014.9 |
| 20260904210055 | 96 | 160 | 0.0 | 7.0 | 0.00 | 0.00 | 0.00 | 52 | 1014.9 |
| 20260904205553 | 96 | 140 | 2.0 | 8.0 | 0.00 | 0.00 | 0.00 | 51 | 1015.0 |
| 20260904205048 | 97 | 122 | 2.0 | 8.0 | 0.00 | 0.00 | 0.00 | 50 | 1014.9 |
| 20260904204548 | 96 | 148 | 2.0 | 11.0 | 0.00 | 0.00 | 0.00 | 52 | 1015.1 |
| 20260904204048 | 96 | 69 | 3.0 | 11.0 | 0.00 | 0.00 | 0.00 | 50 | 1015.1 |
| 20260904203547 | 96 | 66 | 6.0 | 10.0 | 0.00 | 0.00 | 0.00 | 51 | 1015.1 |
| 20260904203049 | 96 | 141 | 4.0 | 8.0 | 0.00 | 0.00 | 0.00 | 50 | 1015.2 |
| 20260904202546 | 93 | 65 | 1.0 | 6.0 | 0.00 | 0.00 | 0.00 | 54 | 1015.3 |
| 20260904202045 | 93 | 173 | 2.0 | 8.0 | 0.00 | 0.00 | 0.00 | 54 | 1015.4 |
| 20260904201600 | 94 | 130 | 2.0 | 8.0 | 0.00 | 0.00 | 0.00 | 52 | 1015.3 |
| 20260904201045 | 94 | 100 | 1.0 | 7.0 | 0.00 | 0.00 | 0.00 | 53 | 1015.4 |
| 20260904200647 | 94 | 149 | 2.0 | 7.0 | 0.00 | 0.00 | 0.00 | 53 | 1015.5 |
| 20260904200049 | 95 | 99 | 1.0 | 10.0 | 0.00 | 0.00 | 0.00 | 51 | 1015.5 |
| 20260904195543 | 96 | 119 | 4.0 | 10.0 | 0.00 | 0.00 | 0.00 | 50 | 1015.6 |
| 20260904195045 | 98 | 115 | 1.0 | 6.0 | 0.00 | 0.00 | 0.00 | 50 | 1015.6 |
| 20260904194542 | 98 | 87 | 2.0 | 11.0 | 0.00 | 0.00 | 0.00 | 52 | 1015.7 |
| 20260904194041 | 98 | 153 | 4.0 | 12.0 | 0.00 | 0.00 | 0.00 | 50 | 1015.8 |
| 20260904193541 | 97 | 155 | 4.0 | 12.0 | 0.00 | 0.00 | 0.00 | 50 | 1015.9 |
| 20260904193042 | 97 | 72 | 3.0 | 11.0 | 0.00 | 0.00 | 0.00 | 49 | 1015.9 |
| 20260904192540 | 94 | 78 | 2.0 | 6.0 | 0.00 | 0.00 | 0.00 | 54 | 1016.0 |
| 20260904192040 | 93 | 5 | 1.0 | 3.0 | 0.00 | 0.00 | 0.00 | 62 | 1016.1 |